North Las Vegas, NV

5:58 AM PDT on May 25, 2017 (GMT -0700)
North Las Vegas

Weather History for KVGT - August, 2012

Change the Weather History Date:

Thursday, August 2, 2012

  Actual Average Record
Temperature  
Mean Temperature 88 °F 91 °F  
Max Temperature 100 °F 104 °F 110 °F (2008)
Min Temperature 75 °F 79 °F 71 °F (2015)
Degree Days  
Heating Degree Days 0 0  
Month to date heating degree days 0  
Since 1 July heating degree days 0  
Cooling Degree Days 22 26  
Month to date cooling degree days 52  
Year to date cooling degree days 1948  
Growing Degree Days 38 (Base 50)    
Moisture  
Dew Point 57 °F    
Average Humidity 37    
Maximum Humidity 69    
Minimum Humidity 17    
Precipitation  
Precipitation 0.00 in 0.01 in 0.00 in (2017)
Month to date precipitation 0.03  
Year to date precipitation 3.14  
Sea Level Pressure  
Sea Level Pressure 29.90 in    
Wind  
Wind Speed 3 mph (South)    
Max Wind Speed 9 mph    
Max Gust Speed -    
Visibility 10 miles    
Events      
T = Trace of Precipitation, MM = Missing Value Source: NWS Daily Summary

Daily Weather History Graph

Daily Weather History Graph

Search for Another Location

Airport or City:

Trip Planner

Search our weather history database for the weather conditions in past years. The results will help you decide how hot, cold, wet, or windy it might be!

Date:

Astronomy

Aug. 02, 2012 Rise Set
Actual Time 5:48 AM PDT 7:44 PM PDT
Civil Twilight 5:20 AM PDT 8:12 PM PDT
Nautical Twilight 4:46 AM PDT 8:46 PM PDT
Astronomical Twilight 4:09 AM PDT 9:23 PM PDT
Moon 7:57 PM PDT (8/2) 6:27 AM PDT (8/2)
Length of Visible Light 14h 52m
Length of Day
13h 55m
Waxing Gibbous, 99% of the Moon is Illuminated
Aug 2
Waxing Gibbous
Aug 9
Last Quarter
Aug 17
New
Aug 24
First Quarter
Aug 31
Full

Hourly Weather History & Observations

Time (PDT) Temp. Heat Index Dew Point Humidity Pressure Visibility Wind Dir Wind Speed Gust Speed Precip Events Conditions
12:53 AM 82.0 °F 82.4 °F 60.1 °F 47% 29.96 in 10.0 mi SSW 3.5 mph - N/A   Clear
1:53 AM 81.0 °F 81.6 °F 60.1 °F 49% 29.96 in 10.0 mi Calm Calm - N/A   Clear
2:53 AM 79.0 °F - 62.1 °F 56% 29.96 in 10.0 mi WNW 4.6 mph - N/A   Clear
3:53 AM 78.1 °F - 63.0 °F 60% 29.96 in 10.0 mi Calm Calm - N/A   Clear
4:53 AM 77.0 °F - 64.0 °F 64% 29.96 in 10.0 mi WNW 3.5 mph - N/A   Clear
5:53 AM 75.9 °F - 64.9 °F 69% 29.96 in 10.0 mi Calm Calm - N/A   Clear
6:53 AM 77.0 °F - 64.0 °F 64% 29.97 in 10.0 mi Calm Calm - N/A   Clear
7:53 AM 82.0 °F 82.7 °F 61.0 °F 49% 29.99 in 10.0 mi SSE 5.8 mph - N/A   Clear
8:53 AM 84.0 °F 84.0 °F 60.1 °F 44% 30.00 in 10.0 mi SSE 4.6 mph - N/A   Clear
9:53 AM 86.0 °F 85.4 °F 59.0 °F 40% 29.99 in 10.0 mi Calm Calm - N/A   Clear
10:53 AM 89.6 °F 89.5 °F 60.8 °F 38% 30.00 in 10.0 mi Calm Calm - N/A   Clear
11:53 AM 91.9 °F 90.8 °F 57.9 °F 32% 29.95 in 10.0 mi South 6.9 mph - N/A   Clear
12:53 PM 95.0 °F 94.0 °F 57.9 °F 29% 29.92 in 10.0 mi Variable 4.6 mph - N/A   Clear
1:53 PM 97.0 °F 95.3 °F 55.9 °F 25% 29.90 in 10.0 mi Variable 3.5 mph - N/A   Clear
2:53 PM 98.6 °F - 51.8 °F 21% 29.90 in 10.0 mi Calm Calm - N/A   Clear
3:53 PM 100.0 °F - 48.0 °F 17% 29.83 in 10.0 mi South 8.1 mph - N/A   Clear
4:53 PM 100.9 °F - 48.9 °F 17% 29.81 in 10.0 mi South 5.8 mph - N/A   Clear
5:53 PM 100.0 °F - 48.9 °F 18% 29.79 in 10.0 mi South 6.9 mph - N/A   Clear
6:53 PM 100.0 °F - 48.9 °F 18% 29.78 in 10.0 mi South 5.8 mph - N/A   Clear
7:53 PM 97.0 °F - 50.0 °F 20% 29.78 in 10.0 mi SSE 5.8 mph - N/A   Clear
8:53 PM 93.9 °F - 52.0 °F 24% 29.79 in 10.0 mi SSE 3.5 mph - N/A   Clear
9:53 PM 95.0 °F - 52.0 °F 23% 29.80 in 10.0 mi SSW 8.1 mph - N/A   Clear
10:53 PM 93.0 °F 91.1 °F 55.0 °F 28% 29.80 in 10.0 mi South 9.2 mph - N/A   Clear
11:53 PM 91.0 °F 90.2 °F 59.0 °F 34% 29.80 in 10.0 mi South 6.9 mph - N/A   Clear